Cruise_ID,Date_UTC,Time_UTC,Date_EDT,Time_EDT,Latitude,Longitude,CO2,Temp_C,Ship_Sal_PSU
11BHM01,5/3/2011,9:10 PM,5/3/2011,17:10,28.00382,-83.3658,403.2,26.48,35.97
11BHM01,5/3/2011,9:25 PM,5/3/2011,17:25,28.02807,-83.39922,404.5,26.43,35.99
11BHM01,5/3/2011,9:40 PM,5/3/2011,17:40,28.05245,-83.4328,396.2,26.43,36.01
11BHM01,5/3/2011,9:55 PM,5/3/2011,17:55,28.07698,-83.46665,394,26.48,36.06
11BHM01,5/3/2011,10:10 PM,5/3/2011,18:10,28.10187,-83.50057,388.2,26.4,36.06
11BHM01,5/3/2011,10:25 PM,5/3/2011,18:25,28.12668,-83.53492,368.5,26.37,36.05
11BHM01,5/3/2011,10:40 PM,5/3/2011,18:40,28.15135,-83.56883,348.8,26.35,36.01
11BHM01,5/3/2011,10:55 PM,5/3/2011,18:55,28.1754,-83.60183,339.6,26.37,36
11BHM01,5/3/2011,11:10 PM,5/3/2011,19:10,28.19948,-83.635,341.1,26.29,35.98
11BHM01,5/3/2011,11:25 PM,5/3/2011,19:25,28.22348,-83.6681,340,26.24,36.06
11BHM01,5/3/2011,11:40 PM,5/3/2011,19:40,28.2472,-83.70062,333.6,26.19,36.21
11BHM01,5/3/2011,11:55 PM,5/3/2011,19:55,28.27068,-83.73308,326.3,26.19,36.21
11BHM01,5/4/2011,12:10 AM,5/3/2011,20:10,28.29398,-83.76523,320.8,26.11,36.22
11BHM01,5/4/2011,12:25 AM,5/3/2011,20:25,28.3173,-83.79723,319.1,26.05,36.22
11BHM01,5/4/2011,12:40 AM,5/3/2011,20:40,28.34043,-83.82915,315,26.08,36.24
11BHM01,5/4/2011,12:55 AM,5/3/2011,20:55,28.36347,-83.86098,312.8,25.97,36.25
11BHM01,5/4/2011,1:10 AM,5/3/2011,21:10,28.38658,-83.89263,316.5,25.81,36.21
11BHM01,5/4/2011,1:25 AM,5/3/2011,21:25,28.40952,-83.9244,326.1,25.73,36.21
11BHM01,5/4/2011,1:40 AM,5/3/2011,21:40,28.43248,-83.9561,330.9,25.47,36.19
11BHM01,5/4/2011,1:55 AM,5/3/2011,21:55,28.45552,-83.98768,322.3,25.87,36.17
11BHM01,5/4/2011,2:10 AM,5/3/2011,22:10,28.4784,-84.01933,320.7,25.66,36.16
11BHM01,5/4/2011,2:25 AM,5/3/2011,22:25,28.50123,-84.05078,328.8,25.5,36.12
11BHM01,5/4/2011,2:40 AM,5/3/2011,22:40,28.52398,-84.08208,331.5,25.23,36.19
11BHM01,5/4/2011,2:55 AM,5/3/2011,22:55,28.54657,-84.11338,329.9,25.18,36.22
11BHM01,5/4/2011,3:10 AM,5/3/2011,23:10,28.5693,-84.14488,325.5,25.18,36.23
11BHM01,5/4/2011,3:25 AM,5/3/2011,23:25,28.59215,-84.17632,333.7,25.13,36.22
11BHM01,5/4/2011,3:40 AM,5/3/2011,23:40,28.61525,-84.20823,334,25.08,36.22
11BHM01,5/4/2011,3:55 AM,5/3/2011,23:55,28.63792,-84.2396,332.8,25,36.26
11BHM01,5/4/2011,4:10 AM,5/4/2011,0:10,28.66048,-84.27085,333.6,24.87,36.26
11BHM01,5/4/2011,4:25 AM,5/4/2011,0:25,28.68858,-84.29488,331.1,24.81,36.23
11BHM01,5/4/2011,4:40 AM,5/4/2011,0:40,28.72118,-84.31407,333.9,24.68,36.18
11BHM01,5/4/2011,4:55 AM,5/4/2011,0:55,28.75372,-84.33322,340.8,24.68,36.24
11BHM01,5/4/2011,5:10 AM,5/4/2011,1:10,28.7863,-84.35243,341.7,24.71,36.24
11BHM01,5/4/2011,5:25 AM,5/4/2011,1:25,28.819,-84.37165,338,24.53,36.23
11BHM01,5/4/2011,5:40 AM,5/4/2011,1:40,28.85178,-84.391,335.3,24.74,36.06
11BHM01,5/4/2011,5:55 AM,5/4/2011,1:55,28.88423,-84.41013,332.2,24.63,36.02
11BHM01,5/4/2011,6:10 AM,5/4/2011,2:10,28.91698,-84.42932,327.8,24.58,35.92
11BHM01,5/4/2011,6:25 AM,5/4/2011,2:25,28.94952,-84.44855,327.9,24.53,35.85
11BHM01,5/4/2011,6:40 AM,5/4/2011,2:40,28.98212,-84.4679,326.1,24.4,35.82
11BHM01,5/4/2011,6:55 AM,5/4/2011,2:55,29.01482,-84.48712,325.7,24.35,35.82
11BHM01,5/4/2011,7:10 AM,5/4/2011,3:10,29.0474,-84.50623,332.1,24.35,35.86
11BHM01,5/4/2011,7:25 AM,5/4/2011,3:25,29.07997,-84.52545,336.4,24.35,35.84
11BHM01,5/4/2011,7:40 AM,5/4/2011,3:40,29.11255,-84.5448,337.7,24.17,35.85
11BHM01,5/4/2011,7:55 AM,5/4/2011,3:55,29.14505,-84.56385,337.7,24.3,35.84
11BHM01,5/4/2011,8:10 AM,5/4/2011,4:10,29.17747,-84.58308,334,24.27,35.85
11BHM01,5/4/2011,8:25 AM,5/4/2011,4:25,29.20943,-84.60195,334.1,24.24,35.81
11BHM01,5/4/2011,8:40 AM,5/4/2011,4:40,29.24028,-84.6202,338.2,24.14,35.69
11BHM01,5/4/2011,8:55 AM,5/4/2011,4:55,29.27068,-84.63823,349,24.22,35.71
11BHM01,5/4/2011,9:10 AM,5/4/2011,5:10,29.30043,-84.65575,357.5,23.93,35.66
11BHM01,5/4/2011,9:25 AM,5/4/2011,5:25,29.32913,-84.67277,370.6,23.93,35.62
11BHM01,5/4/2011,9:40 AM,5/4/2011,5:40,29.35835,-84.68507,367.7,23.88,35.6
11BHM01,5/4/2011,9:55 AM,5/4/2011,5:55,29.38297,-84.69058,369.2,23.88,35.59
11BHM01,5/4/2011,10:10 AM,5/4/2011,6:10,29.40805,-84.6967,369.3,23.86,35.62
11BHM01,5/4/2011,10:25 AM,5/4/2011,6:25,29.43255,-84.70358,374.2,23.86,35.63
11BHM01,5/4/2011,10:40 AM,5/4/2011,6:40,29.45775,-84.711,363.8,23.83,35.65
11BHM01,5/4/2011,10:55 AM,5/4/2011,6:55,29.48163,-84.71743,372.3,23.88,35.7
11BHM01,5/4/2011,11:10 AM,5/4/2011,7:10,29.50272,-84.72392,364.8,23.86,35.7
11BHM01,5/4/2011,11:25 AM,5/4/2011,7:25,29.52538,-84.73022,365.9,24.01,35.71
11BHM01,5/4/2011,11:40 AM,5/4/2011,7:40,29.54833,-84.73682,362.8,23.96,35.78
11BHM01,5/4/2011,11:55 AM,5/4/2011,7:55,29.57203,-84.74318,363.8,23.96,35.76
11BHM01,5/4/2011,12:10 PM,5/4/2011,8:10,29.59595,-84.74833,373.5,23.96,35.79
11BHM01,5/4/2011,12:25 PM,5/4/2011,8:25,29.59907,-84.7667,373,23.93,35.78
11BHM01,5/4/2011,12:40 PM,5/4/2011,8:40,29.58263,-84.79548,376.6,23.88,35.82
11BHM01,5/4/2011,12:55 PM,5/4/2011,8:55,29.56618,-84.82418,482.4,23.93,35.86
11BHM01,5/4/2011,1:10 PM,5/4/2011,9:10,29.54935,-84.85295,562.5,23.91,33.64
11BHM01,5/4/2011,1:25 PM,5/4/2011,9:25,29.52962,-84.87952,624.7,23.91,33.51
11BHM01,5/4/2011,1:40 PM,5/4/2011,9:40,29.5103,-84.90613,664.7,23.91,33.83
11BHM01,5/4/2011,1:55 PM,5/4/2011,9:55,29.49183,-84.93292,690.8,23.88,33.87
11BHM01,5/4/2011,2:10 PM,5/4/2011,10:10,29.47317,-84.95942,709.8,23.86,34.08
11BHM01,5/4/2011,2:25 PM,5/4/2011,10:25,29.45442,-84.9851,726.9,23.83,33.97
11BHM01,5/4/2011,2:40 PM,5/4/2011,10:40,29.44257,-85.01317,744,23.78,33.89
11BHM01,5/4/2011,2:55 PM,5/4/2011,10:55,29.43533,-85.04313,759.8,23.7,33.94
11BHM01,5/4/2011,3:10 PM,5/4/2011,11:10,29.42808,-85.07232,776.3,23.65,34.13
11BHM01,5/4/2011,3:25 PM,5/4/2011,11:25,29.42077,-85.10178,783.4,23.63,34.43
11BHM01,5/4/2011,3:40 PM,5/4/2011,11:40,29.41365,-85.1315,788.3,23.57,34.63
11BHM01,5/4/2011,3:55 PM,5/4/2011,11:55,29.40747,-85.16127,785,23.52,34.71
11BHM01,5/4/2011,4:10 PM,5/4/2011,12:10,29.4017,-85.19073,471.7,25,34.77
11BHM01,5/4/2011,4:25 PM,5/4/2011,12:25,29.39607,-85.22077,455.1,24.92,34.83
11BHM01,5/4/2011,4:40 PM,5/4/2011,12:40,29.41465,-85.22775,455.5,24.84,34.83
11BHM01,5/4/2011,4:55 PM,5/4/2011,12:55,29.4384,-85.22782,453,24.81,34.86
11BHM01,5/4/2011,5:10 PM,5/4/2011,13:10,29.46325,-85.22773,443.5,24.71,34.89
11BHM01,5/4/2011,5:25 PM,5/4/2011,13:25,29.48927,-85.2262,446.8,24.76,34.91
11BHM01,5/4/2011,5:40 PM,5/4/2011,13:40,29.51595,-85.22535,455.4,24.79,34.94
11BHM01,5/4/2011,5:55 PM,5/4/2011,13:55,29.54347,-85.22448,459.8,24.63,34.97
11BHM01,5/4/2011,6:10 PM,5/4/2011,14:10,29.55652,-85.24733,447.7,24.55,35.01
11BHM01,5/4/2011,6:25 PM,5/4/2011,14:25,29.56553,-85.2771,434,24.53,35.01
11BHM01,5/4/2011,6:40 PM,5/4/2011,14:40,29.57427,-85.30893,424.5,24.48,35.05
11BHM01,5/4/2011,6:55 PM,5/4/2011,14:55,29.58197,-85.33933,421.9,24.27,35.05
11BHM01,5/4/2011,7:10 PM,5/4/2011,15:10,29.58942,-85.36995,424.9,24.22,35.08
11BHM01,5/4/2011,7:36 PM,5/4/2011,15:36,29.60025,-85.42423,384.3,24.14,35.12
11BHM01,5/4/2011,7:51 PM,5/4/2011,15:51,29.60842,-85.45418,418.1,24.09,35.1
11BHM01,5/4/2011,8:06 PM,5/4/2011,16:06,29.61615,-85.48523,440.9,23.93,35.13
11BHM01,5/4/2011,8:21 PM,5/4/2011,16:21,29.62512,-85.47178,418.3,23.83,35.19
11BHM01,5/4/2011,8:36 PM,5/4/2011,16:36,29.61268,-85.4418,394.2,23.73,35.14
11BHM01,5/4/2011,8:51 PM,5/4/2011,16:51,29.59987,-85.41152,372.4,23.65,32.69
11BHM01,5/4/2011,9:06 PM,5/4/2011,17:06,29.58837,-85.38117,356.2,23.6,32.54
11BHM01,5/4/2011,9:21 PM,5/4/2011,17:21,29.59952,-85.384,344.6,23.57,32.41
11BHM01,5/4/2011,9:36 PM,5/4/2011,17:36,29.62605,-85.40933,336.8,23.55,32.74
11BHM01,5/4/2011,9:51 PM,5/4/2011,17:51,29.65233,-85.43482,322.6,23.52,33.57
11BHM01,5/4/2011,10:06 PM,5/4/2011,18:06,29.67848,-85.46022,313.4,23.52,33.41
11BHM01,5/4/2011,10:21 PM,5/4/2011,18:21,29.7049,-85.48592,304.4,23.55,33.21
11BHM01,5/4/2011,10:36 PM,5/4/2011,18:36,29.73198,-85.51233,292.5,23.6,33.09
11BHM01,5/4/2011,10:51 PM,5/4/2011,18:51,29.75955,-85.53907,283.9,23.65,34.15
11BHM01,5/4/2011,11:06 PM,5/4/2011,19:06,29.78722,-85.56587,284.3,23.65,34.44
11BHM01,5/4/2011,11:21 PM,5/4/2011,19:21,29.81447,-85.59242,284.6,23.65,35.14
11BHM01,5/4/2011,11:36 PM,5/4/2011,19:36,29.84175,-85.61888,284.2,23.68,34.8
11BHM01,5/4/2011,11:51 PM,5/4/2011,19:51,29.8697,-85.64612,397,24.76,34.62
11BHM01,5/5/2011,12:06 AM,5/4/2011,20:06,29.8976,-85.67325,396.7,24.84,35.19
11BHM01,5/5/2011,12:21 AM,5/4/2011,20:21,29.92457,-85.69972,394.3,24.84,34.98
11BHM01,5/5/2011,12:36 AM,5/4/2011,20:36,29.95225,-85.72643,401.3,24.66,34.67
11BHM01,5/5/2011,12:51 AM,5/4/2011,20:51,29.97978,-85.75343,393.6,24.5,34.49
11BHM01,5/5/2011,1:06 AM,5/4/2011,21:06,30.00737,-85.78017,387.9,24.55,34.49
11BHM01,5/5/2011,1:21 AM,5/4/2011,21:21,30.03457,-85.80673,389.5,24.55,34.52
11BHM01,5/5/2011,1:36 AM,5/4/2011,21:36,30.05168,-85.82252,384.5,24.58,34.43
11BHM01,5/5/2011,1:51 AM,5/4/2011,21:51,30.03087,-85.79488,386.3,24.19,34.5
11BHM01,5/5/2011,2:06 AM,5/4/2011,22:06,30.01017,-85.76728,382.3,24.06,34.45
11BHM01,5/5/2011,2:21 AM,5/4/2011,22:21,29.98948,-85.73997,368.2,23.42,34.4
11BHM01,5/5/2011,2:36 AM,5/4/2011,22:36,29.96878,-85.71262,373.5,23.78,34.5
11BHM01,5/5/2011,2:51 AM,5/4/2011,22:51,29.94837,-85.68573,378,23.91,34.61
11BHM01,5/5/2011,3:06 AM,5/4/2011,23:06,29.928,-85.65872,365.1,23.73,34.62
11BHM01,5/5/2011,3:21 AM,5/4/2011,23:21,29.90765,-85.63197,368.3,23.78,34.55
11BHM01,5/5/2011,3:36 AM,5/4/2011,23:36,29.88762,-85.60475,374.3,24.04,34.46
11BHM01,5/5/2011,3:51 AM,5/4/2011,23:51,29.8861,-85.61192,378.7,24.04,34.49
11BHM01,5/5/2011,4:06 AM,5/5/2011,0:06,29.90993,-85.63507,376.8,24.09,34.55
11BHM01,5/5/2011,4:21 AM,5/5/2011,0:21,29.93375,-85.65827,376.4,24.14,34.6
11BHM01,5/5/2011,4:36 AM,5/5/2011,0:36,29.95747,-85.68157,376,24.19,34.51
11BHM01,5/5/2011,4:51 AM,5/5/2011,0:51,29.98117,-85.70455,377.2,24.14,34.45
11BHM01,5/5/2011,5:06 AM,5/5/2011,1:06,30.0045,-85.72767,381,24.14,34.38
11BHM01,5/5/2011,5:21 AM,5/5/2011,1:21,30.0197,-85.74413,380.4,24.06,34.43
11BHM01,5/5/2011,5:36 AM,5/5/2011,1:36,29.99587,-85.7191,376.8,23.99,34.4
11BHM01,5/5/2011,5:51 AM,5/5/2011,1:51,29.97133,-85.69507,384.3,23.96,34.49
11BHM01,5/5/2011,6:06 AM,5/5/2011,2:06,29.94703,-85.67132,382.9,23.93,34.61
11BHM01,5/5/2011,6:21 AM,5/5/2011,2:21,29.92298,-85.64783,380.4,23.83,34.62
11BHM01,5/5/2011,6:36 AM,5/5/2011,2:36,29.89898,-85.62442,380.9,23.88,34.61
11BHM01,5/5/2011,6:51 AM,5/5/2011,2:51,29.89915,-85.6324,380.1,23.81,34.62
11BHM01,5/5/2011,7:06 AM,5/5/2011,3:06,29.91353,-85.65548,379.4,23.83,34.7
11BHM01,5/5/2011,7:21 AM,5/5/2011,3:21,29.92497,-85.67545,379.6,23.88,34.72
11BHM01,5/5/2011,7:36 AM,5/5/2011,3:36,29.93595,-85.6959,377,23.91,34.87
11BHM01,5/5/2011,7:51 AM,5/5/2011,3:51,29.94633,-85.71642,374.8,23.93,34.8
11BHM01,5/5/2011,8:06 AM,5/5/2011,4:06,29.95877,-85.73507,377.2,24.04,34.66
11BHM01,5/5/2011,8:21 AM,5/5/2011,4:21,29.97213,-85.75357,369.8,24.04,34.64
11BHM01,5/5/2011,8:36 AM,5/5/2011,4:36,29.98618,-85.77103,372.5,23.96,34.6
11BHM01,5/5/2011,8:51 AM,5/5/2011,4:51,30.00072,-85.78788,373.4,23.91,34.59
11BHM01,5/5/2011,9:06 AM,5/5/2011,5:06,30.01517,-85.80528,374.6,23.75,34.32
11BHM01,5/5/2011,9:21 AM,5/5/2011,5:21,30.01732,-85.80333,370.9,23.75,34.31
11BHM01,5/5/2011,9:36 AM,5/5/2011,5:36,30.00735,-85.78432,371.8,23.65,34.51
11BHM01,5/5/2011,9:51 AM,5/5/2011,5:51,29.995,-85.76597,366.3,23.6,34.56
11BHM01,5/5/2011,10:06 AM,5/5/2011,6:06,29.98068,-85.74903,375.4,23.57,34.59
11BHM01,5/5/2011,10:21 AM,5/5/2011,6:21,29.96642,-85.73178,369.7,23.55,34.65
11BHM01,5/5/2011,10:36 AM,5/5/2011,6:36,29.9753,-85.74353,367.6,23.57,34.6
11BHM01,5/5/2011,10:51 AM,5/5/2011,6:51,29.98877,-85.76253,369.1,23.65,34.59
11BHM01,5/5/2011,11:06 AM,5/5/2011,7:06,30.00232,-85.78147,374.1,23.7,34.58
11BHM01,5/5/2011,11:21 AM,5/5/2011,7:21,30.01595,-85.80087,372.9,23.65,34.62
11BHM01,5/5/2011,11:36 AM,5/5/2011,7:36,30.03067,-85.81787,370.3,23.68,34.76
11BHM01,5/5/2011,11:51 AM,5/5/2011,7:51,30.0481,-85.82528,369.3,23.73,34.79
11BHM01,5/5/2011,12:06 PM,5/5/2011,8:06,30.05258,-85.82488,370.8,23.75,34.39
11BHM01,5/5/2011,12:21 PM,5/5/2011,8:21,30.04875,-85.82915,363.8,23.81,34.39
11BHM01,5/5/2011,12:36 PM,5/5/2011,8:36,30.04475,-85.83388,376.3,23.73,34.37
11BHM01,5/5/2011,12:51 PM,5/5/2011,8:51,30.04775,-85.83527,378.7,23.75,34.4
11BHM01,5/5/2011,1:06 PM,5/5/2011,9:06,30.05373,-85.82952,376,23.65,34.45
11BHM01,5/5/2011,1:21 PM,5/5/2011,9:21,30.05825,-85.81935,375.6,23.65,34.37
11BHM01,5/5/2011,1:36 PM,5/5/2011,9:36,30.05792,-85.81798,379.5,23.6,34.39
11BHM01,5/5/2011,1:51 PM,5/5/2011,9:51,30.06475,-85.8081,379.7,23.68,34.64
11BHM01,5/5/2011,2:06 PM,5/5/2011,10:06,30.06772,-85.80712,375.9,23.68,34.61
11BHM01,5/5/2011,2:21 PM,5/5/2011,10:21,30.05793,-85.8222,384.2,23.27,34.42
11BHM01,5/5/2011,2:36 PM,5/5/2011,10:36,30.04985,-85.83927,374.8,23.14,34.52
11BHM01,5/5/2011,2:51 PM,5/5/2011,10:51,30.05125,-85.85795,358,22.91,34.61
11BHM01,5/5/2011,3:06 PM,5/5/2011,11:06,30.03663,-85.87928,383.6,23.7,34.65
11BHM01,5/5/2011,3:21 PM,5/5/2011,11:21,30.01355,-85.9138,387.2,23.68,35.14
11BHM01,5/5/2011,3:36 PM,5/5/2011,11:36,29.9909,-85.94775,380.5,23.65,35.38
11BHM01,5/5/2011,3:51 PM,5/5/2011,11:51,29.96837,-85.9814,384.8,23.65,35.49
11BHM01,5/5/2011,4:06 PM,5/5/2011,12:06,29.94602,-86.015,376.3,23.65,35.6
11BHM01,5/5/2011,4:21 PM,5/5/2011,12:21,29.9235,-86.0486,364.3,23.52,35.67
11BHM01,5/5/2011,4:36 PM,5/5/2011,12:36,29.90077,-86.08247,358.8,23.57,35.67
11BHM01,5/5/2011,4:51 PM,5/5/2011,12:51,29.87825,-86.11633,362.9,23.65,35.69
11BHM01,5/5/2011,5:06 PM,5/5/2011,13:06,29.8556,-86.15002,352.4,23.63,35.56
11BHM01,5/5/2011,5:21 PM,5/5/2011,13:21,29.83305,-86.18378,350.9,23.5,35.52
11BHM01,5/5/2011,5:36 PM,5/5/2011,13:36,29.83173,-86.19025,355.4,23.65,35.51
11BHM01,5/5/2011,5:51 PM,5/5/2011,13:51,29.83707,-86.18682,351.7,23.63,35.47
11BHM01,5/5/2011,6:06 PM,5/5/2011,14:06,29.84647,-86.176,348.2,23.47,35.49
11BHM01,5/5/2011,6:21 PM,5/5/2011,14:21,29.8558,-86.16498,334.9,23.24,35.51
11BHM01,5/5/2011,6:36 PM,5/5/2011,14:36,29.86495,-86.15328,329.1,23.09,35.5
11BHM01,5/5/2011,6:51 PM,5/5/2011,14:51,29.86765,-86.15497,328,23.01,35.56
11BHM01,5/5/2011,7:06 PM,5/5/2011,15:06,29.86555,-86.17,320,22.96,35.55
11BHM01,5/5/2011,7:21 PM,5/5/2011,15:21,29.86403,-86.18445,309.9,22.89,35.51
11BHM01,5/5/2011,7:36 PM,5/5/2011,15:36,29.86328,-86.19843,307.3,22.99,35.5
11BHM01,5/5/2011,7:51 PM,5/5/2011,15:51,29.86467,-86.21217,296.5,23.01,35.46
11BHM01,5/5/2011,8:06 PM,5/5/2011,16:06,29.84507,-86.22838,293.4,23.07,35.45
11BHM01,5/5/2011,8:21 PM,5/5/2011,16:21,29.81345,-86.23875,293.8,23.04,35.46
11BHM01,5/5/2011,8:36 PM,5/5/2011,16:36,29.78498,-86.26335,298.4,23.07,35.51
11BHM01,5/5/2011,8:51 PM,5/5/2011,16:51,29.7644,-86.29722,304.5,23.12,35.57
11BHM01,5/5/2011,9:06 PM,5/5/2011,17:06,29.74385,-86.331,308.9,23.14,35.6
11BHM01,5/5/2011,9:21 PM,5/5/2011,17:21,29.73378,-86.3507,319.6,23.14,35.72
11BHM01,5/5/2011,9:36 PM,5/5/2011,17:36,29.73522,-86.35442,315.5,23.32,35.7
11BHM01,5/5/2011,9:51 PM,5/5/2011,17:51,29.74285,-86.353,326,23.42,35.63
11BHM01,5/5/2011,10:20 PM,5/5/2011,18:20,29.75613,-86.35188,328.8,23.68,35.6
11BHM01,5/5/2011,10:35 PM,5/5/2011,18:35,29.75385,-86.3645,337.1,23.75,35.61
11BHM01,5/5/2011,10:50 PM,5/5/2011,18:50,29.75063,-86.37657,341.2,23.75,35.61
11BHM01,5/5/2011,11:05 PM,5/5/2011,19:05,29.7448,-86.38678,339.3,23.83,35.58
11BHM01,5/5/2011,11:20 PM,5/5/2011,19:20,29.73908,-86.39742,336.5,23.83,35.6
11BHM01,5/5/2011,11:35 PM,5/5/2011,19:35,29.73383,-86.40713,341.3,23.86,35.7
11BHM01,5/5/2011,11:50 PM,5/5/2011,19:50,29.7295,-86.41552,357.2,23.93,35.69
11BHM01,5/6/2011,12:05 AM,5/5/2011,20:05,29.7143,-86.43083,359.9,23.83,35.66
11BHM01,5/6/2011,12:20 AM,5/5/2011,20:20,29.68147,-86.44458,360.9,23.88,35.12
11BHM01,5/6/2011,12:35 AM,5/5/2011,20:35,29.65588,-86.46957,358.5,23.88,34.84
11BHM01,5/6/2011,12:50 AM,5/5/2011,20:50,29.63283,-86.49898,356.4,23.96,34.62
11BHM01,5/6/2011,1:05 AM,5/5/2011,21:05,29.61003,-86.52812,362.6,23.99,34.5
11BHM01,5/6/2011,1:20 AM,5/5/2011,21:20,29.58725,-86.55633,365,23.99,34.41
11BHM01,5/6/2011,1:35 AM,5/5/2011,21:35,29.56647,-86.5833,383.5,24.09,34.5
11BHM01,5/6/2011,1:50 AM,5/5/2011,21:50,29.56763,-86.58143,330.9,23.17,34.54
11BHM01,5/6/2011,2:05 AM,5/5/2011,22:05,29.566,-86.58193,323.9,23.14,34.59
11BHM01,5/6/2011,2:20 AM,5/5/2011,22:20,29.5616,-86.58853,328.4,23.14,34.69
11BHM01,5/6/2011,2:35 AM,5/5/2011,22:35,29.55572,-86.59708,324.2,23.04,34.78
11BHM01,5/6/2011,2:50 AM,5/5/2011,22:50,29.54962,-86.60705,321.9,22.99,35.02
11BHM01,5/6/2011,3:05 AM,5/5/2011,23:05,29.54428,-86.6129,325,23.14,35.3
11BHM01,5/6/2011,3:20 AM,5/5/2011,23:20,29.54373,-86.62162,322.9,23.37,35.3
11BHM01,5/6/2011,3:35 AM,5/5/2011,23:35,29.54415,-86.63585,314,23.29,35.37
11BHM01,5/6/2011,3:50 AM,5/5/2011,23:50,29.55433,-86.64678,318.4,23.37,35.45
11BHM01,5/6/2011,4:05 AM,5/6/2011,0:05,29.56777,-86.64383,313.1,23.29,35.45
11BHM01,5/6/2011,4:20 AM,5/6/2011,0:20,29.55483,-86.6391,318.3,23.37,35.48
11BHM01,5/6/2011,4:35 AM,5/6/2011,0:35,29.52493,-86.65798,319,23.47,35.42
11BHM01,5/6/2011,4:50 AM,5/6/2011,0:50,29.50263,-86.68782,316.3,23.45,35.26
11BHM01,5/6/2011,5:05 AM,5/6/2011,1:05,29.47855,-86.71678,319.8,23.55,35.2
11BHM01,5/6/2011,5:20 AM,5/6/2011,1:20,29.45858,-86.74952,321.7,23.57,35.29
11BHM01,5/6/2011,5:35 AM,5/6/2011,1:35,29.44098,-86.78322,317.6,23.57,35.04
11BHM01,5/6/2011,5:50 AM,5/6/2011,1:50,29.43528,-86.78507,325.4,23.91,34.95
11BHM01,5/6/2011,6:05 AM,5/6/2011,2:05,29.43343,-86.78415,325,23.96,34.95
11BHM01,5/6/2011,6:20 AM,5/6/2011,2:20,29.43127,-86.7833,325.4,23.93,34.93
11BHM01,5/6/2011,6:35 AM,5/6/2011,2:35,29.4211,-86.78667,323.7,23.96,34.95
11BHM01,5/6/2011,6:50 AM,5/6/2011,2:50,29.41142,-86.79047,321.5,23.96,34.93
11BHM01,5/6/2011,7:05 AM,5/6/2011,3:05,29.40173,-86.79495,327.1,23.96,34.86
11BHM01,5/6/2011,7:20 AM,5/6/2011,3:20,29.39088,-86.79863,324.3,23.96,34.85
11BHM01,5/6/2011,7:35 AM,5/6/2011,3:35,29.38015,-86.80227,323.1,23.73,34.83
11BHM01,5/6/2011,7:50 AM,5/6/2011,3:50,29.36845,-86.80255,319.4,23.65,34.9
11BHM01,5/6/2011,8:05 AM,5/6/2011,4:05,29.3566,-86.80258,311.5,23.63,34.86
11BHM01,5/6/2011,8:20 AM,5/6/2011,4:20,29.34495,-86.8049,316.8,23.88,35.07
11BHM01,5/6/2011,8:35 AM,5/6/2011,4:35,29.33425,-86.80858,317,23.88,35.56
11BHM01,5/6/2011,8:50 AM,5/6/2011,4:50,29.32392,-86.81092,314.6,23.88,35.53
11BHM01,5/6/2011,9:05 AM,5/6/2011,5:05,29.31292,-86.81318,308.3,23.81,35.59
11BHM01,5/6/2011,9:20 AM,5/6/2011,5:20,29.3021,-86.81583,307.7,23.83,35.6
11BHM01,5/6/2011,9:35 AM,5/6/2011,5:35,29.29352,-86.82028,311.4,23.91,35.57
11BHM01,5/6/2011,9:50 AM,5/6/2011,5:50,29.26173,-86.83877,306.5,23.93,35.49
11BHM01,5/6/2011,10:05 AM,5/6/2011,6:05,29.22905,-86.8562,307.6,23.86,36.01
11BHM01,5/6/2011,10:20 AM,5/6/2011,6:20,29.19667,-86.87357,309.6,23.83,36.12
11BHM01,5/6/2011,10:35 AM,5/6/2011,6:35,29.16405,-86.89148,307.7,23.73,36.36
11BHM01,5/6/2011,10:50 AM,5/6/2011,6:50,29.13217,-86.90877,310.7,23.78,35.75
11BHM01,5/6/2011,11:05 AM,5/6/2011,7:05,29.10048,-86.92698,311.6,23.68,36.33
11BHM01,5/6/2011,11:20 AM,5/6/2011,7:20,29.06885,-86.94612,314.6,23.88,36.33
11BHM01,5/6/2011,11:35 AM,5/6/2011,7:35,29.03737,-86.96592,326.4,24.04,36.32
11BHM01,5/6/2011,11:50 AM,5/6/2011,7:50,29.00662,-86.9874,328.2,23.99,36.33
11BHM01,5/6/2011,12:05 PM,5/6/2011,8:05,28.98915,-86.99765,332.2,24.04,36.33
11BHM01,5/6/2011,12:20 PM,5/6/2011,8:20,28.98477,-86.99705,327.7,24.04,36.33
11BHM01,5/6/2011,12:35 PM,5/6/2011,8:35,28.98113,-86.99727,324.6,23.99,36.33
11BHM01,5/6/2011,12:50 PM,5/6/2011,8:50,28.97663,-86.99813,326.5,23.96,36.33
11BHM01,5/6/2011,1:05 PM,5/6/2011,9:05,28.97238,-86.99947,331.9,24.17,36.33
11BHM01,5/6/2011,1:20 PM,5/6/2011,9:20,28.96888,-87.0006,324.1,24.04,36.32
11BHM01,5/6/2011,1:35 PM,5/6/2011,9:35,28.96632,-87.00103,328.7,24.17,36.33
11BHM01,5/6/2011,1:50 PM,5/6/2011,9:50,28.9642,-86.98987,326.1,24.19,36.3
11BHM01,5/6/2011,2:05 PM,5/6/2011,10:05,28.95308,-86.98933,325.8,24.27,36.29
11BHM01,5/6/2011,2:20 PM,5/6/2011,10:20,28.94155,-86.99297,329.3,24.3,36.28
11BHM01,5/6/2011,2:35 PM,5/6/2011,10:35,28.9367,-87.00827,321.8,24.32,36.29
11BHM01,5/6/2011,2:50 PM,5/6/2011,10:50,28.93218,-87.02002,316.4,24.37,36.3
11BHM01,5/6/2011,3:05 PM,5/6/2011,11:05,28.92735,-87.033,321.5,24.37,36.31
11BHM01,5/6/2011,3:20 PM,5/6/2011,11:20,28.92302,-87.04517,325.5,24.37,36.3
11BHM01,5/6/2011,3:35 PM,5/6/2011,11:35,28.9187,-87.05705,327.4,24.37,36.3
11BHM01,5/6/2011,3:50 PM,5/6/2011,11:50,28.91453,-87.06902,331.3,24.4,36.3
11BHM01,5/6/2011,4:05 PM,5/6/2011,12:05,28.91038,-87.0804,325.6,24.35,36.31
11BHM01,5/6/2011,4:20 PM,5/6/2011,12:20,28.90643,-87.09118,329.4,24.37,36.31
11BHM01,5/6/2011,4:35 PM,5/6/2011,12:35,28.90263,-87.10198,323.3,24.4,36.32
11BHM01,5/6/2011,4:50 PM,5/6/2011,12:50,28.8987,-87.11265,322,24.35,36.33
11BHM01,5/6/2011,5:05 PM,5/6/2011,13:05,28.89515,-87.12313,313.9,24.3,36.32
11BHM01,5/6/2011,5:20 PM,5/6/2011,13:20,28.89195,-87.13315,319,24.35,36.33
11BHM01,5/6/2011,5:35 PM,5/6/2011,13:35,28.89663,-87.13838,319.2,24.32,36.32
11BHM01,5/6/2011,5:50 PM,5/6/2011,13:50,28.91672,-87.1301,320.4,24.37,36.35
11BHM01,5/6/2011,6:05 PM,5/6/2011,14:05,28.91378,-87.13245,326.2,24.35,36.35
11BHM01,5/6/2011,6:20 PM,5/6/2011,14:20,28.9111,-87.1352,324,24.37,36.34
11BHM01,5/6/2011,6:35 PM,5/6/2011,14:35,28.9093,-87.13738,321.6,24.35,36.34
11BHM01,5/6/2011,6:50 PM,5/6/2011,14:50,28.9072,-87.13997,319.8,24.37,36.35
11BHM01,5/6/2011,7:05 PM,5/6/2011,15:05,28.90572,-87.14155,320.2,24.37,36.34
11BHM01,5/6/2011,7:20 PM,5/6/2011,15:20,28.90362,-87.14402,320.9,24.37,36.34
11BHM01,5/6/2011,7:35 PM,5/6/2011,15:35,28.91312,-87.13923,319.7,24.37,36.34
11BHM01,5/6/2011,7:50 PM,5/6/2011,15:50,28.91677,-87.13673,316.7,24.37,36.34
11BHM01,5/6/2011,8:05 PM,5/6/2011,16:05,28.91508,-87.13825,320,24.37,36.33
11BHM01,5/6/2011,8:20 PM,5/6/2011,16:20,28.91365,-87.14048,318.5,24.37,36.32
11BHM01,5/6/2011,8:35 PM,5/6/2011,16:35,28.91172,-87.14352,326.7,24.4,36.33
11BHM01,5/6/2011,8:50 PM,5/6/2011,16:50,28.8921,-87.17718,327,24.42,36.33
11BHM01,5/6/2011,9:05 PM,5/6/2011,17:05,28.87247,-87.21143,322.7,24.4,36.34
11BHM01,5/6/2011,9:20 PM,5/6/2011,17:20,28.8525,-87.2453,328.1,24.42,36.36
11BHM01,5/6/2011,9:35 PM,5/6/2011,17:35,28.84347,-87.26173,328.7,24.48,36.37
11BHM01,5/6/2011,9:50 PM,5/6/2011,17:50,28.84265,-87.26272,327.5,24.48,36.37
11BHM01,5/6/2011,10:05 PM,5/6/2011,18:05,28.84202,-87.26368,329.1,24.45,36.37
11BHM01,5/6/2011,10:20 PM,5/6/2011,18:20,28.84133,-87.26535,332.9,24.48,36.37
11BHM01,5/6/2011,10:35 PM,5/6/2011,18:35,28.84062,-87.2667,323.2,24.5,36.37
11BHM01,5/6/2011,10:50 PM,5/6/2011,18:50,28.83998,-87.26768,331,24.53,36.37
11BHM01,5/6/2011,11:05 PM,5/6/2011,19:05,28.83938,-87.2683,330.6,24.5,36.37
11BHM01,5/6/2011,11:20 PM,5/6/2011,19:20,28.83887,-87.26877,323.9,24.55,36.37
11BHM01,5/6/2011,11:35 PM,5/6/2011,19:35,28.83837,-87.26915,319.9,24.53,36.38
11BHM01,5/6/2011,11:50 PM,5/6/2011,19:50,28.838,-87.27655,322.1,24.53,36.37
11BHM01,5/7/2011,12:05 AM,5/6/2011,20:05,28.83912,-87.28708,322.9,24.55,36.38
11BHM01,5/7/2011,12:20 AM,5/6/2011,20:20,28.83988,-87.29702,326.5,24.61,36.38
11BHM01,5/7/2011,12:35 AM,5/6/2011,20:35,28.84147,-87.3144,328.6,24.61,36.35
11BHM01,5/7/2011,12:50 AM,5/6/2011,20:50,28.84302,-87.33145,331.9,24.61,36.32
11BHM01,5/7/2011,1:05 AM,5/6/2011,21:05,28.84465,-87.34438,331.2,24.58,36.3
11BHM01,5/7/2011,1:20 AM,5/6/2011,21:20,28.84633,-87.356,328,24.58,36.31
11BHM01,5/7/2011,1:35 AM,5/6/2011,21:35,28.84837,-87.36835,328.5,24.55,36.33
11BHM01,5/7/2011,1:50 AM,5/6/2011,21:50,28.8572,-87.3766,325.7,24.58,36.34
11BHM01,5/7/2011,2:05 AM,5/6/2011,22:05,28.86752,-87.38303,329,24.58,36.35
11BHM01,5/7/2011,2:20 AM,5/6/2011,22:20,28.8799,-87.38452,333.7,24.61,36.37
11BHM01,5/7/2011,2:35 AM,5/6/2011,22:35,28.89225,-87.38335,330.1,24.61,36.38
11BHM01,5/7/2011,2:50 AM,5/6/2011,22:50,28.90392,-87.37842,326.1,24.58,36.37